Погода в Чаре

Погода в Чаре : погода сейчас, прогноз погоды и архив. Всё, что Вы хотите узнать о погоде в Чаре!

Хотите узнать прогноз погоды в Чаре? Тогда Вам сюда: Погода в Чаре

Поиск расширенной информации на нашем сайте:

Другие новости

Новости СМИ2

Главная страница сайта

Новости сайта

03.07.2017

Напоминаем, что на нашем специализированном сайте Метеоцентр.Азия вы можете получить высокодетализированные автоматические прогнозы погоды по пунктам России, СНГ и мира в авиационном формате (включающие направление и скорость ветра, видимость, явления погоды, количество и форму облачности, нижнюю и верхнюю границу облачности).


Погода в Чаре - сегодня

Время (UTC), дата Ветер
(°,м/с) 
Видим.   Явления Облачность Т
(°С)
Тd
(°С)
f(%) Тe
(°С)
Pmin
(гПа)
dP
(гПа)
Po
(мм)
O2
(г/м3)
Тmin Tmax R s Состояние
почвы
00 22.05.18 230 (ЮЗ) 4000 м  снег{дождь}  10/8 600 м средняя 
[Frnb|As op]
+0.2 -2    683  275      19  равномерный
мокрый или
старый снег
100% 
03 22.05.18 240 (ЮЗ) 4000 м  снег  10/6 600 м средняя 
[As op]
+1 +0.7 98 -1  991.8  -1.4  682  273           
06 22.05.18 230 (ЮЗ) 20000 м  {снег}  10/5 600 м кучево-дожд., средняя 
[Cb cap|As op]
+2.2 -1.6 76 +1  990.4  -1.1  681  272           
09 22.05.18 240 (ЮЗ) 20000 м  слаб. ливневой снег  10/6 1000 м кучево-дожд., средняя 
[Cb cap|As op]
+1.8 -0.1 87 +1  990.6  0.2  681  272           
12 22.05.18 280 (З) 10 км  слаб. ливневой снег  10/8 1000 м кучево-дожд., средняя 
[Cb cap|As op]
+0.7 +0.7 100 +1  990.7  -0.2  681  273    +2.7     
15 22.05.18 040 (СВ) 20000 м  слаб. ливневой снег  10/6 1000 м кучево-дожд., средняя 
[Cb cap|As op]
+0.1 +0.7 100 +1  990.7  -1.3  680  273           
18 22.05.18 тихо ()   20000 м  слаб. ливневой снег  10/6 1000 м кучево-дожд., средняя 
[Cb cap|As op]
-0.1 -0.1 100 -0  988.9  -0.9  679  274           
21 22.05.18 тихо ()   10 км  слаб. ливневой снег  10/8 1000 м кучево-дожд., средняя 
[Cb cap|As op]
+0.2 +0.2 100 989.4  0.5  679  273           
00 23.05.18 250 (З) 20000 м  {ливн. осадки}  9/9 600 м кучево-дожд. 
[Cb cap]
+4 +0.5 78 +5  989.6  1.5  681  270  -0.1    мокрый или
старый снег
50-90% 
03 23.05.18 120 (ЮВ) 20000 м  в посл. час ливневой дождь  8/8 1000 м кучево-дожд. 
[Cb cap]
+5.5 -1.5 61 +5  989.3  0.1  681  269           
06 23.05.18 260 (З) 20000 м  {ливн. осадки}  8/8 1500 м кучево-дожд. 
[Cb cap]
+8.7 -3.3 43 +8  989.5  681  266           
09 23.05.18 200 (Ю) 20000 м    8/8 1500 м кучево-дожд., верхняя 
[Cb cap|Ci fib]
+9.1 -6.6 32 +9  992.4  2.9  684  267           
15 23.05.18 220 (ЮЗ) 20000 м    9/9 1500 м кучево-дожд. 
[Cb cap]
+4.3 -1.7 65 +5  998.4  1.5  687  272           
18 23.05.18 340 (С) 20000 м    8/8 1500 м кучево-дожд. 
[Cb cap]
+0.7 -1.4 86 +1  1001  1.3  688  276           
21 23.05.18 230 (ЮЗ) 20000 м    1/1 1500 м 
[Sc]
+1.4 -1.4 82 +2  1002.7  1.8  689  276           
00 24.05.18 260 (З) 20000 м    3/3 1500 м 
[Cu hum]
+8.1 -2.4 47 +9  1003  2.1  691  270  -1.1        затоплена
водой 
03 24.05.18 230 (ЮЗ) 20000 м    4/4 1500 м 
[Cu med, cong]
+11.9 -2.9 35 +12  1003.2  1.3  692  267           
06 24.05.18 240 (ЮЗ) 20000 м    4/4 1500 м 
[Cu med, cong]
+14.3 -3.6 29 +14  1003.5  0.9  692  265           
09 24.05.18 240 (ЮЗ) 20000 м    3/3 1500 м 
[Cu med, cong]
+15.4 -5 24 +16  1004.6  1.2  693  265           
15 24.05.18 тихо ()   20000 м    6/0 верхняя 
[Ci fib]
+4.6 -0.8 68 +5  1012.4  2.4  696  276           
18 24.05.18 240 (ЮЗ) 20000 м    3/0 верхняя 
[Ci fib]
+1.2 +0.8 97 +2  1014.6  1.1  697  279           
21 24.05.18 тихо ()   20000 м    4/0 верхняя 
[Ci fib]
+1.6 -0.5 86 +2  1016.3  1.6  698  280           
00 25.05.18 170 (Ю) 20000 м    4/0 верхняя 
[Ci fib]
+9.8 -0.1 50 +11  1014.6  0.8  699  272  -0.5        мокрая 
03 25.05.18 010 (С) 20000 м    3/0 верхняя 
[Ci fib]
+15.7 -2.9 28 +17  1011.9  -0.9  698  266           
06 25.05.18 360 (С) 20000 м    3/0 верхняя 
[Ci fib]
+18.8 -6 18 +20  1009.6  -1.3  697  263           
Время (UTC), дата Ветер
(°,м/с) 
Видим.   Явления Облачность Т
(°С)
Тd
(°С)
f(%) Тe
(°С)
Pmin
(гПа)
dP
(гПа)
Po
(мм)
O2
(г/м3)
Тmin Tmax R s Состояние
почвы

Для получения пояснительной информации подведите курсор к названию столбца.

ПОГОДА в Чаре - архив

Всё, что Вы хотите узнать о погоде в Чаре - удобно и подробно!

Выберите нужную дату (начиная с 1 января 2015* года) и нажмите кнопку "Найти".
Будут отображены архивные сводки погоды по пункту Чара, начиная с указанной даты.


Отображать данные в формате CSV (для использования в таблицах Excel)


Внимание! Наш архив погоды предназначен исключительно для личного некоммерческого использования в познавательных целях. Если Вам необходимы официальные справки о состоянии погоды (для производственных, юридических, коммерческих и т.п. целей), обращайтесь в органы Росгидромета.

*Примечание: данная дата относится к архиву по метеостанциям СССР (Россия, СНГ, Балтия).
Архив по метеостанциям Зарубежной Европы и Азии (кроме Китая) хранится 10 дней, по другим регионам земного шара (Китай, Африка, Америка, Австралия, Океания) - 1 день.

Чара - район местоположения метеостанции


Название, широта, долгота, высота метеостанции:
Чара 56.9°ш. 118.3°д. 711 м над ур. моря [Российская Федерация]

Дополнительная информация

В oтличие oт бoльшинства пoгoдных сайтoв мы публикуем пoдрoбную метеoинфoрмацию в детальнoм прoфессиoнальнoм фoрмате.

Характеристики температуры и влажнoсти вoздуха измеряются на высoте 2 м в тени вдали oт зданий и деревьев.
Скoрoсть ветра измеряется на высoте 10 м (на урoвне рoста челoвека скoрoсть ветра ниже в 1.5-2 раза). Если метеoстанция нахoдится в гoрoде или в лесу, тo скoрoсть ветра занижена на 2-4 м/с пo сравнению с oткрытым местoм. Скoрoсть ветра над акватoриями крупных рек и oзёр, а также на вершинах хoлмoв на 2-5 м/с выше, чем в oбычных услoвиях.
Атмoсфернoе давление в разных тoчках местнoсти мoжет значительнo oтличаться oт давления на метеoстанции, в зависимoсти oт услoвий рельефа (при пoдъёме на 10 м давление пoнижается примернo на 1 мм рт.ст.).